[[{"header":{"parameterUnit":"m.s-1","parameterCategory":1,"la1":30.2991,"la2":30.254,"lo1":-89.0895,"lo2":-89.0444,"dy":0.0017,"dx":0.0017,"nx":28,"ny":28,"refTime":"2024-07-25T21:00:00:Z","depth":0,"parameterNumber":2,"parameterNumberName":"U-component_of_WINDS"},"data":[0,0,0,0,0,0,0,0,0,0,0,0,0,0,0,0,0,0,0,0,0,0,0,0,0,0,0,0,0,0,0,0,0,0,0,0,0,0,0,0,0,0,0,0,0,0,0,0,0,0,0,0,0,0,0,0,0,0,-0.452,-0.4521,0,-0.457,-0.4571,-0.4571,-0.4636,-0.4637,-0.4638,-0.4639,-0.4686,-0.4686,-0.4686,0,0,0,0,0,0,0,0,0,0,0,0,0,-0.4477,-0.4477,-0.452,-0.4521,-0.4521,-0.457,-0.4571,-0.4571,-0.4635,-0.4637,-0.4638,-0.4639,-0.4686,-0.4686,-0.4686,0,0,0,0,0,0,0,0,0,0,0,0,0,-0.4508,-0.4478,-0.452,-0.4559,-0.4563,-0.457,-0.4571,-0.4572,-0.4635,-0.4637,-0.4638,-0.464,-0.4685,-0.4686,-0.4686,-0.4657,0,0,-0.4687,-0.4688,0,0,0,0,0,0,0,0,-0.4506,-0.451,-0.4553,-0.4557,-0.4561,-0.4598,-0.4573,-0.46,-0.4635,-0.4608,-0.4639,-0.4641,-0.4655,-0.4658,-0.4664,-0.4659,-0.4661,-0.4688,-0.4688,-0.4688,-0.4688,0,0,0,0,0,0,0,-0.4504,-0.4508,-0.454,-0.4553,-0.4558,-0.4573,-0.458,-0.4578,-0.4622,-0.461,-0.4615,-0.462,-0.4658,-0.4663,-0.4665,-0.4662,-0.4687,-0.4688,-0.4688,-0.4688,-0.4637,-0.4635,0,0,0,0,0,0,-0.4496,-0.4506,-0.4538,-0.4541,-0.4537,-0.4573,-0.458,-0.4585,-0.4622,-0.4629,-0.4619,-0.4623,-0.4662,-0.4665,-0.4667,-0.4636,-0.4688,-0.4688,-0.4689,-0.4638,-0.4636,-0.4635,0,0,0,0,0,0,-0.4495,-0.4499,-0.4536,-0.4525,-0.4531,-0.4572,-0.4577,-0.4585,-0.4591,-0.4629,-0.4636,-0.4617,-0.4663,-0.4667,-0.466,-0.4639,-0.4688,-0.4689,-0.464,-0.4638,-0.4636,-0.4573,0,0,0,0,0,0,-0.4494,-0.4498,-0.4488,-0.4524,-0.4531,-0.4528,-0.4576,-0.4585,-0.4592,-0.4598,-0.4629,-0.4635,-0.4665,-0.4659,-0.466,-0.464,-0.4689,-0.4642,-0.4639,-0.4636,-0.4577,-0.4569,-0.4562,0,0,0,0,0,-0.4492,-0.4467,-0.4487,-0.4491,-0.452,-0.4527,-0.4531,-0.4566,-0.459,-0.458,-0.4604,-0.4634,-0.4641,-0.4657,-0.4659,-0.4639,-0.4644,-0.464,-0.4637,-0.4581,-0.457,-0.4562,0,0,0,0,0,0,-0.4425,-0.4472,-0.4495,-0.4481,-0.45,-0.4538,-0.4526,-0.4554,-0.4565,-0.457,-0.4613,-0.4619,-0.4607,-0.4622,-0.464,-0.4613,-0.4647,-0.4643,-0.4604,-0.4594,-0.4587,-0.4583,-0.4689,0,0,0,0,0,-0.4409,-0.4413,-0.4453,-0.4437,-0.4445,-0.4484,-0.4489,-0.4515,-0.4535,-0.4543,-0.4567,-0.4584,-0.459,-0.4593,-0.4601,-0.458,-0.4588,-0.4567,-0.4559,-0.4553,-0.4549,-0.454,-0.4531,-0.4623,-0.4623,-0.4623,0,0,-0.4375,-0.4402,-0.4401,-0.4424,-0.4442,-0.4444,-0.449,-0.4489,-0.4491,-0.4542,-0.4537,-0.4556,-0.4578,-0.4564,-0.4559,-0.4577,-0.4526,-0.4548,-0.4543,-0.4543,-0.4535,-0.4527,-0.4519,-0.462,-0.4621,-0.4621,0,0,-0.4315,-0.4335,-0.4325,-0.4342,-0.4368,-0.4395,-0.4392,-0.4426,-0.4441,-0.4437,-0.4476,-0.4478,-0.4487,-0.4502,-0.451,-0.4457,-0.4485,-0.4458,-0.4418,-0.4408,-0.4401,-0.4395,-0.4376,-0.4368,-0.4455,-0.4455,-0.4455,0,-0.4269,-0.4275,-0.4315,-0.4313,-0.4322,-0.4371,-0.436,-0.4374,-0.4401,-0.4405,-0.4425,-0.4439,-0.4458,-0.4448,-0.4435,-0.4441,-0.4439,-0.4455,-0.4399,-0.4393,-0.4388,-0.437,-0.4363,-0.4451,-0.4452,-0.4452,-0.4452,0,-0.4217,-0.422,-0.4208,-0.4235,-0.4243,-0.4236,-0.4275,-0.4278,-0.4304,-0.4328,-0.4323,-0.4347,-0.4361,-0.4361,-0.4385,-0.4355,-0.4365,-0.4391,-0.4426,-0.4375,-0.4359,-0.4353,-0.4446,-0.4447,-0.4448,-0.4449,0,0,-0.4114,-0.4166,-0.4161,-0.4174,-0.4208,-0.421,-0.4206,-0.4221,-0.4223,-0.424,-0.4237,-0.4245,-0.427,-0.4279,-0.4306,-0.4297,-0.4254,-0.4325,-0.4326,-0.4311,-0.4223,-0.4203,-0.4194,-0.4273,-0.4272,-0.4271,-0.4221,0,-0.406,-0.4057,-0.4094,-0.408,-0.4084,-0.4131,-0.4127,-0.4146,-0.4169,-0.4174,-0.4198,-0.4203,-0.4236,-0.4242,-0.4236,-0.4261,-0.4237,-0.4265,-0.427,-0.427,-0.4263,-0.4186,-0.4165,-0.4116,-0.4215,-0.4214,-0.4213,0,-0.3996,-0.4012,-0.3999,-0.4035,-0.4038,-0.4034,-0.4051,-0.4056,-0.4079,-0.4096,-0.4108,-0.4139,-0.4136,-0.417,-0.4166,-0.4185,-0.4189,-0.4201,-0.42,-0.4202,-0.4238,-0.4185,-0.4101,-0.4094,-0.4204,-0.4204,-0.4205,0,-0.3923,-0.3941,-0.3936,-0.3946,-0.3987,-0.3983,-0.4,-0.4025,-0.4033,-0.4047,-0.4053,-0.4066,-0.4073,-0.4083,-0.4116,-0.4137,-0.4109,-0.4145,-0.4122,-0.4121,-0.4114,-0.4114,-0.4029,-0.4117,-0.4117,-0.4117,-0.4117,0,-0.3858,-0.3848,-0.3904,-0.39,-0.3891,-0.3934,-0.3923,-0.3944,-0.3966,-0.3967,-0.4008,-0.4008,-0.4052,-0.4057,-0.4083,-0.4076,-0.4079,-0.4092,-0.4099,-0.4088,-0.4087,-0.4091,-0.4096,-0.4115,-0.4116,-0.4116,-0.4116,0,-0.3774,-0.3811,-0.3809,-0.3849,-0.3859,-0.385,-0.3884,-0.3882,-0.3908,-0.3909,-0.3911,-0.3951,-0.3959,-0.3994,-0.4009,-0.4026,-0.4011,-0.4025,-0.4003,-0.4008,-0.3983,-0.3985,-0.3898,-0.3889,-0.3982,-0.3982,-0.3981,0,-0.373,-0.3724,-0.3765,-0.3769,-0.3785,-0.3792,-0.38,-0.3842,-0.3848,-0.3875,-0.387,-0.3881,-0.3893,-0.3903,-0.3932,-0.3944,-0.3958,-0.3927,-0.396,-0.395,-0.3958,-0.3958,-0.3957,-0.392,-0.3918,-0.3918,-0.3917,0,-0.3649,-0.3668,-0.3679,-0.3697,-0.3706,-0.3722,-0.3739,-0.374,-0.3787,-0.3792,-0.3802,-0.381,-0.3827,-0.3838,-0.3855,-0.3871,-0.3901,-0.3906,-0.3902,-0.3891,-0.3878,-0.3885,-0.3984,-0.3908,-0.3909,-0.3909,-0.391,-0.391,-0.3584,-0.3581,-0.361,-0.3621,-0.3639,-0.3655,-0.3656,-0.3683,-0.3692,-0.371,-0.3734,-0.374,-0.3764,-0.3791,-0.3805,-0.381,-0.3827,-0.382,-0.3818,-0.3816,-0.381,-0.3878,-0.3813,-0.3813,-0.3813,-0.3814,-0.3814,0,-0.3504,-0.3526,-0.3536,-0.3561,-0.3569,-0.3599,-0.3621,-0.3626,-0.3632,-0.3652,-0.3663,-0.3674,-0.3685,-0.3716,-0.373,-0.3728,-0.3742,-0.373,-0.373,-0.3733,-0.3794,-0.3797,-0.3718,-0.3718,-0.3718,-0.3718,-0.3718,-0.3718,-0.3464,-0.3462,-0.3484,-0.3491,-0.3512,-0.352,-0.353,-0.3545,-0.3562,-0.3573,-0.3583,-0.3604,-0.3628,-0.3644,-0.3655,-0.3664,-0.3667,-0.365,-0.3663,-0.372,-0.3729,-0.3738,-0.374,-0.3651,-0.365,-0.3602,-0.3601,-0.3601]},{"header":{"parameterUnit":"m.s-1","parameterCategory":1,"la1":30.2991,"la2":30.254,"lo1":-89.0895,"lo2":-89.0444,"dy":0.0017,"dx":0.0017,"nx":28,"ny":28,"refTime":"2024-07-25T21:00:00:Z","depth":0,"parameterNumber":3,"parameterNumberName":"V-component_of_WINDS"},"data":[0,0,0,0,0,0,0,0,0,0,0,0,0,0,0,0,0,0,0,0,0,0,0,0,0,0,0,0,0,0,0,0,0,0,0,0,0,0,0,0,0,0,0,0,0,0,0,0,0,0,0,0,0,0,0,0,0,0,2.1396,2.1397,0,2.1519,2.152,2.1522,2.1525,2.1524,2.1522,2.1521,2.1635,2.164,2.1644,0,0,0,0,0,0,0,0,0,0,0,0,0,2.1154,2.1158,2.1396,2.1397,2.1399,2.1519,2.152,2.1522,2.1525,2.1524,2.1522,2.152,2.1634,2.1639,2.1644,0,0,0,0,0,0,0,0,0,0,0,0,0,2.1266,2.116,2.1396,2.1415,2.1418,2.1518,2.152,2.1522,2.1526,2.1524,2.1521,2.1519,2.1632,2.1639,2.1645,2.173,0,0,2.1665,2.1668,0,0,0,0,0,0,0,0,2.1259,2.1275,2.1411,2.1414,2.1418,2.1505,2.1477,2.1592,2.1526,2.1485,2.1521,2.1518,2.1593,2.1603,2.163,2.1735,2.174,2.1666,2.167,2.1673,2.1675,0,0,0,0,0,0,0,2.1252,2.1269,2.1444,2.1413,2.1417,2.1415,2.1428,2.1499,2.1549,2.1488,2.1489,2.1504,2.1594,2.1624,2.1633,2.1742,2.1666,2.1672,2.1676,2.1678,2.1922,2.1925,0,0,0,0,0,0,2.1242,2.1263,2.144,2.1448,2.1332,2.1421,2.1436,2.1479,2.1549,2.1557,2.1506,2.1504,2.1613,2.1625,2.1637,2.1741,2.1673,2.1679,2.1683,2.192,2.1923,2.1926,0,0,0,0,0,0,2.1236,2.1257,2.1435,2.1356,2.1378,2.1428,2.1475,2.1482,2.1512,2.1562,2.157,2.1527,2.1612,2.1627,2.1708,2.1745,2.1682,2.1688,2.1917,2.1921,2.1924,2.1949,0,0,0,0,0,0,2.1229,2.1256,2.1291,2.1357,2.1383,2.1507,2.1478,2.1486,2.1525,2.1523,2.1584,2.1592,2.1612,2.1698,2.1714,2.1753,2.1693,2.1914,2.1919,2.1923,2.1945,2.1953,2.196,0,0,0,0,0,2.1221,2.129,2.1292,2.1314,2.1428,2.1509,2.1524,2.1548,2.1528,2.1562,2.1594,2.159,2.1738,2.1706,2.1724,2.1765,2.1911,2.1917,2.1923,2.1941,2.1951,2.196,0,0,0,0,0,0,2.1222,2.1299,2.1302,2.1396,2.1447,2.151,2.1553,2.1558,2.1612,2.1608,2.1632,2.1646,2.1726,2.1753,2.1716,2.1851,2.1822,2.1832,2.183,2.184,2.1847,2.1838,2.1699,0,0,0,0,0,2.1234,2.1298,2.136,2.1435,2.1462,2.1503,2.1539,2.1555,2.1606,2.1626,2.1664,2.1712,2.1769,2.1806,2.1861,2.1949,2.1962,2.1987,2.1994,2.2,2.2007,2.2055,2.2067,2.1944,2.1944,2.1944,0,0,2.1257,2.1307,2.1345,2.1437,2.1478,2.154,2.1521,2.1587,2.1632,2.1635,2.1714,2.1744,2.1798,2.1883,2.1922,2.1908,2.2044,2.2007,2.2012,2.2016,2.2062,2.2074,2.2084,2.1948,2.1947,2.1947,0,0,2.1332,2.1378,2.1446,2.1489,2.1553,2.1581,2.1598,2.1661,2.1682,2.1763,2.1767,2.1819,2.1918,2.1956,2.1989,2.2081,2.2079,2.2098,2.2136,2.2183,2.2192,2.2201,2.2233,2.2244,2.2105,2.2106,2.2106,0,2.1352,2.145,2.148,2.1547,2.1587,2.1598,2.1666,2.1704,2.1781,2.1807,2.1792,2.1917,2.1954,2.2048,2.2071,2.2097,2.2114,2.209,2.2189,2.2198,2.2207,2.2237,2.2249,2.2107,2.2107,2.2107,2.2107,0,2.1471,2.1538,2.1585,2.1665,2.171,2.1776,2.1814,2.1855,2.1867,2.1895,2.1976,2.2022,2.2087,2.211,2.212,2.2205,2.2195,2.2185,2.2156,2.222,2.2249,2.226,2.211,2.2109,2.2109,2.2108,0,0,2.1547,2.1645,2.1662,2.1698,2.1771,2.1822,2.1888,2.1957,2.1991,2.2044,2.2099,2.2183,2.2175,2.2211,2.2226,2.2267,2.2336,2.2251,2.2253,2.2264,2.2431,2.2438,2.2451,2.2336,2.2338,2.234,2.2426,0,2.1629,2.1753,2.1783,2.1887,2.1948,2.1961,2.2018,2.2067,2.2096,2.215,2.2179,2.2239,2.2224,2.2246,2.2287,2.2319,2.2369,2.2313,2.2384,2.2386,2.2369,2.2466,2.2473,2.2552,2.2438,2.244,2.2441,0,2.174,2.1801,2.1913,2.1979,2.2006,2.2058,2.2123,2.2176,2.2231,2.2248,2.2292,2.2302,2.2369,2.2339,2.243,2.2391,2.2422,2.2442,2.2446,2.2451,2.2416,2.2473,2.2578,2.2589,2.2459,2.2458,2.2457,0,2.1784,2.1893,2.1975,2.2005,2.2085,2.2121,2.2155,2.2209,2.2248,2.2304,2.2329,2.239,2.2423,2.2468,2.2494,2.247,2.2583,2.2555,2.2597,2.2596,2.2619,2.2617,2.2728,2.2641,2.2641,2.2641,2.264,0,2.1871,2.1938,2.1996,2.2045,2.2121,2.2154,2.2226,2.2259,2.2308,2.2361,2.2374,2.2424,2.2456,2.2509,2.253,2.2602,2.2616,2.263,2.2635,2.2629,2.2627,2.2648,2.2642,2.2644,2.2643,2.2643,2.2642,0,2.1931,2.1972,2.2062,2.2132,2.2151,2.2203,2.2261,2.2308,2.2338,2.2406,2.2424,2.2469,2.2533,2.2565,2.2642,2.2656,2.2737,2.2738,2.2719,2.2721,2.2761,2.2756,2.2888,2.2907,2.2809,2.281,2.281,0,2.1983,2.2036,2.2113,2.2153,2.2189,2.2252,2.2294,2.2327,2.2369,2.2438,2.2476,2.2541,2.2595,2.2696,2.2733,2.2793,2.2794,2.2837,2.2803,2.2796,2.2794,2.279,2.2794,2.2842,2.2843,2.2844,2.2844,0,2.2071,2.209,2.2152,2.2221,2.2272,2.2327,2.2381,2.2411,2.2453,2.2499,2.2567,2.2609,2.2691,2.2755,2.2818,2.2848,2.2852,2.2856,2.2868,2.2861,2.2848,2.2855,2.2734,2.2851,2.2851,2.285,2.285,2.285,2.2128,2.2176,2.2239,2.2307,2.2353,2.2403,2.2452,2.249,2.2549,2.2621,2.2636,2.2708,2.2761,2.2847,2.288,2.2933,2.2924,2.2942,2.2947,2.295,2.2952,2.2842,2.2945,2.2945,2.2945,2.2944,2.2944,0,2.2215,2.2258,2.2321,2.2399,2.2452,2.2457,2.2517,2.256,2.2624,2.2676,2.2731,2.2808,2.287,2.2914,2.2977,2.3011,2.3015,2.3026,2.3023,2.303,2.2957,2.294,2.3023,2.3023,2.3023,2.3023,2.3023,2.3023,2.2267,2.2349,2.2376,2.2479,2.252,2.2594,2.2627,2.2673,2.2715,2.2803,2.2857,2.2887,2.2935,2.3001,2.3058,2.3069,2.309,2.3102,2.3113,2.3043,2.3035,2.3027,2.3011,2.3107,2.3107,2.3181,2.3181,2.3182]}]]